Location: Kershaw
(34.5481°N, 80.5823°W)
Time: 02:33:07
(UTC+00:00)

Tiros 1 despin weight - Pass Details

Date: 07 October 2022
Orbit: 590 x 637 km, 48.2° (Epoch: 30 November)

Event Time Altitude Azimuth Distance (km) Brightness Sun altitude
Rises 00:10:42 0° 312° (NW) 2,874 ? -15.5°
Reaches altitude 10° 00:13:28 10° 329° (NNW) 1,978 ? -16.1°
Maximum altitude 00:16:58 21° 19° (NNE) 1,393 ? -16.8°
Enters shadow 00:18:23 19° 44° (NE) 1,509 ? -17.1°
Drops below altitude 10° 00:20:29 10° 69° (ENE) 1,998 - -17.5°
Sets 00:23:18 0° 86° (E) 2,912 - -18.1°
